Location: Vale
(35.4830°N, 81.3830°W)
Time: 15:46:55
(UTC-04:00)

SR - All Passes

Search period start: 21 August 2017 00:00
Search period end: 31 August 2017 00:00
Orbit: 578 x 879 km, 66.7° (Epoch: 20 August)

Date Brightness Start Highest point End Pass type
(mag) Time Alt. Az. Time Alt. Az. Time Alt. Az.
21 Aug - 00:39:41 10° S 00:45:04 39° ESE 00:50:14 10° NE visible
21 Aug - 02:22:12 10° WSW 02:27:13 30° NW 02:32:01 10° N visible
21 Aug - 09:26:15 10° NNE 09:28:09 12° NE 09:30:01 10° ENE daylight
21 Aug - 11:06:15 10° NNW 11:10:48 68° WSW 11:15:02 10° SSE daylight
21 Aug - 23:51:54 10° SSE 23:55:52 19° ESE 23:59:44 10° ENE visible
22 Aug - 01:31:51 10° SW 01:37:35 56° WNW 01:43:02 10° NNE visible
22 Aug - 10:16:52 10° NNW 10:21:21 50° ENE 10:25:32 10° SE daylight
22 Aug - 12:01:04 10° W 12:02:46 12° WSW 12:04:26 10° SW daylight
23 Aug - 00:42:16 10° SSW 00:48:06 74° ESE 00:53:40 10° NNE visible
23 Aug - 02:27:05 10° W 02:30:41 17° NW 02:34:11 10° N visible
23 Aug - 09:28:00 10° N 09:31:40 23° NE 09:35:10 10° ESE daylight
23 Aug - 11:09:49 10° NW 11:13:42 29° WSW 11:17:23 10° S daylight
23 Aug - 23:53:28 10° S 23:58:46 36° ESE 00:03:51 10° NE visible
24 Aug - 01:35:48 10° WSW 01:40:53 31° NW 01:45:44 10° N visible
24 Aug - 08:40:13 10° NNE 08:41:46 11° NE 08:43:18 10° ENE daylight
24 Aug - 10:19:55 10° NNW 10:24:27 72° WSW 10:28:42 10° SSE daylight
24 Aug - 23:05:47 10° SSE 23:09:34 18° ESE 23:13:16 10° ENE night (unlit)
25 Aug - 00:45:31 10° SW 00:51:16 59° WNW 00:56:43 10° NNE visible
25 Aug - 09:30:34 10° NNW 09:34:59 47° ENE 09:39:08 10° SE daylight
25 Aug - 11:14:28 10° WNW 11:16:27 13° WSW 11:18:22 10° SW daylight
25 Aug - 23:55:59 10° SSW 00:01:48 71° ESE 00:07:19 10° NNE visible
26 Aug - 01:40:36 10° W 01:44:19 17° NW 01:47:55 10° N visible
26 Aug - 08:41:44 10° N 08:45:18 22° NE 08:48:41 10° ESE daylight
26 Aug - 10:23:25 10° NW 10:27:22 31° WSW 10:31:07 10° S daylight
26 Aug - 23:07:15 10° S 23:12:28 35° ESE 23:17:28 10° NE visible
27 Aug - 00:49:25 10° WSW 00:54:32 32° NW 00:59:25 10° N visible
27 Aug - 07:54:15 10° NNE 07:55:23 11° NE 07:56:30 10° ENE daylight
27 Aug - 09:33:34 10° NNW 09:38:06 77° WSW 09:42:21 10° SSE daylight
27 Aug - 22:19:42 10° SE 22:23:16 17° ESE 22:26:46 10° ENE night (unlit)
27 Aug - 23:59:11 10° SW 00:04:56 62° WNW 00:10:23 10° NNE visible
28 Aug - 08:44:16 10° NNW 08:48:37 44° ENE 08:52:43 10° SE daylight
28 Aug - 10:27:56 10° WNW 10:30:08 14° WSW 10:32:17 10° SW daylight
28 Aug - 23:09:42 10° SSW 23:15:29 67° ESE 23:20:58 10° NNE visible
29 Aug - 00:54:08 10° W 00:57:58 18° NW 01:01:40 10° N visible
29 Aug - 07:55:29 10° N 07:58:55 21° NE 08:02:11 10° ESE daylight
29 Aug - 09:37:02 10° NW 09:41:02 33° WSW 09:44:50 10° S daylight
29 Aug - 22:21:02 10° S 22:26:09 33° ESE 22:31:04 10° NE visible
30 Aug - 00:03:02 10° WSW 00:08:12 33° WNW 00:13:07 10° N visible
30 Aug - 07:08:36 10° NE 07:08:59 10° NE 07:09:22 10° NE daylight
30 Aug - 08:47:14 10° NNW 08:51:44 82° WSW 08:55:59 10° SSE daylight
30 Aug - 21:33:37 10° SE 21:36:58 16° ESE 21:40:15 10° ENE night (unlit)
30 Aug - 23:12:50 10° SW 23:18:36 65° WNW 23:24:03 10° NNE visible
